FFL9133 KADS-KSAV

Flight info

Callsign FFL9133
Flight time 1h 41m
Altitude 39000
Route KUSSO2 FORCK DEBII WINAP GIMLY LARZZ SAV
Aircraft B737/M-SDE2E3FGHIRWXY/LB1

Departure

Time 2026-05-08 01:16
Airport Addison Airport (KADS)

Arrival

Time 2026-05-08 02:57
Airport Savannah Hilton Head International Airport (KSAV)
Time Latitude Longitude Altitude Speed Heading
2026-05-08 01:00 32.97397 -96.83635 634 ft 0 kts 335°
2026-05-08 01:06 32.97395 -96.83637 643 ft 0 kts 290°
2026-05-08 01:06 32.97376 -96.83712 643 ft 0 kts 246°
2026-05-08 01:10 32.97376 -96.83714 643 ft 1 kts 246°
2026-05-08 01:10 32.97364 -96.83736 643 ft 6 kts 225°
2026-05-08 01:11 32.97318 -96.83744 643 ft 9 kts 166°
2026-05-08 01:11 32.97252 -96.83717 643 ft 10 kts 160°
2026-05-08 01:11 32.97184 -96.83689 643 ft 10 kts 161°
2026-05-08 01:11 32.97119 -96.83661 643 ft 10 kts 161°
2026-05-08 01:12 32.97055 -96.83634 643 ft 10 kts 159°
2026-05-08 01:12 32.96965 -96.83590 643 ft 16 kts 158°
2026-05-08 01:12 32.96861 -96.83539 643 ft 16 kts 158°
2026-05-08 01:12 32.96759 -96.83493 642 ft 16 kts 161°
2026-05-08 01:13 32.96657 -96.83450 642 ft 15 kts 160°
2026-05-08 01:13 32.96556 -96.83407 642 ft 15 kts 160°
2026-05-08 01:13 32.96462 -96.83371 643 ft 14 kts 162°
2026-05-08 01:13 32.96370 -96.83334 642 ft 14 kts 160°
2026-05-08 01:14 32.96284 -96.83296 642 ft 13 kts 159°
2026-05-08 01:14 32.96196 -96.83254 643 ft 14 kts 158°
2026-05-08 01:14 32.96104 -96.83212 645 ft 14 kts 160°
2026-05-08 01:14 32.96023 -96.83176 643 ft 11 kts 160°
2026-05-08 01:15 32.95966 -96.83150 644 ft 1 kts 167°
2026-05-08 01:15 32.95956 -96.83168 643 ft 7 kts 238°
2026-05-08 01:15 32.95942 -96.83237 644 ft 3 kts 303°
2026-05-08 01:15 32.96021 -96.83283 644 ft 40 kts 340°
2026-05-08 01:16 32.96630 -96.83548 641 ft 142 kts 340°
2026-05-08 01:16 32.97773 -96.84074 996 ft 197 kts 338°
2026-05-08 01:16 32.99068 -96.84674 2215 ft 207 kts 340°
2026-05-08 01:16 33.00440 -96.85039 2888 ft 228 kts 356°
2026-05-08 01:17 33.02026 -96.84845 3886 ft 229 kts 19°
2026-05-08 01:17 33.03414 -96.83927 4945 ft 234 kts 38°
2026-05-08 01:17 33.04530 -96.82463 5684 ft 252 kts 56°
2026-05-08 01:17 33.05246 -96.80423 6214 ft 284 kts 79°
2026-05-08 01:18 33.05439 -96.78032 7072 ft 297 kts 89°
2026-05-08 01:18 33.05432 -96.75536 8128 ft 303 kts 92°
2026-05-08 01:18 33.05370 -96.72998 9155 ft 310 kts 93°
2026-05-08 01:18 33.05298 -96.70405 9851 ft 314 kts 93°
2026-05-08 01:19 33.05231 -96.67773 10543 ft 326 kts 93°
2026-05-08 01:19 33.05168 -96.64999 11243 ft 341 kts 92°
2026-05-08 01:19 33.05111 -96.62112 11914 ft 357 kts 92°
2026-05-08 01:19 33.05058 -96.59134 12574 ft 371 kts 91°
2026-05-08 01:20 33.05007 -96.56008 13248 ft 385 kts 91°
2026-05-08 01:20 33.04957 -96.52769 13927 ft 397 kts 91°
2026-05-08 01:20 33.04908 -96.49439 14538 ft 408 kts 91°
2026-05-08 01:20 33.04857 -96.46006 15165 ft 418 kts 91°
2026-05-08 01:21 33.04804 -96.42513 15798 ft 427 kts 92°
2026-05-08 01:21 33.04749 -96.38939 16446 ft 435 kts 92°
2026-05-08 01:21 33.04693 -96.35305 17099 ft 442 kts 92°
2026-05-08 01:21 33.04635 -96.31673 17766 ft 448 kts 92°
2026-05-08 01:22 33.04574 -96.27906 18039 ft 464 kts 92°
2026-05-08 01:22 33.04508 -96.23984 18172 ft 481 kts 92°
2026-05-08 01:22 33.04440 -96.19949 18433 ft 491 kts 92°
2026-05-08 01:22 33.04371 -96.15879 18825 ft 495 kts 92°
2026-05-08 01:23 33.04300 -96.11760 19273 ft 498 kts 92°
2026-05-08 01:23 33.04229 -96.07623 19682 ft 502 kts 92°
2026-05-08 01:23 33.04154 -96.03447 20061 ft 506 kts 92°
2026-05-08 01:23 33.04078 -95.99248 20433 ft 510 kts 92°
2026-05-08 01:24 33.04000 -95.95060 20792 ft 514 kts 92°
2026-05-08 01:24 33.03918 -95.90781 21148 ft 518 kts 92°
2026-05-08 01:24 33.03835 -95.86477 21491 ft 521 kts 92°
2026-05-08 01:24 33.03750 -95.82149 21815 ft 525 kts 92°
2026-05-08 01:25 33.03662 -95.77794 22147 ft 528 kts 92°
2026-05-08 01:25 33.03572 -95.73398 22462 ft 532 kts 92°
2026-05-08 01:25 33.03481 -95.68989 22769 ft 535 kts 91°
2026-05-08 01:25 33.03387 -95.64529 23060 ft 538 kts 91°
2026-05-08 01:26 33.03292 -95.60131 23330 ft 541 kts 91°
2026-05-08 01:26 33.03194 -95.55635 23586 ft 544 kts 91°
2026-05-08 01:26 33.03094 -95.51111 23808 ft 547 kts 91°
2026-05-08 01:26 33.02991 -95.46583 24035 ft 549 kts 92°
2026-05-08 01:27 33.02886 -95.42027 24276 ft 550 kts 92°
2026-05-08 01:27 33.02780 -95.37467 24502 ft 552 kts 92°
2026-05-08 01:27 33.02671 -95.32894 24712 ft 554 kts 92°
2026-05-08 01:27 33.02561 -95.28301 24909 ft 555 kts 92°
2026-05-08 01:28 33.02448 -95.23701 25110 ft 557 kts 92°
2026-05-08 01:28 33.02334 -95.19079 25309 ft 558 kts 92°
2026-05-08 01:28 33.02219 -95.14508 25497 ft 560 kts 93°
2026-05-08 01:28 33.02101 -95.09870 25683 ft 561 kts 93°
2026-05-08 01:29 33.01981 -95.05225 25842 ft 562 kts 93°
2026-05-08 01:29 33.01858 -95.00573 25987 ft 563 kts 93°
2026-05-08 01:29 33.01734 -94.95890 26123 ft 564 kts 93°
2026-05-08 01:29 33.01608 -94.91220 26280 ft 564 kts 93°
2026-05-08 01:30 33.01484 -94.86689 26527 ft 562 kts 94°
2026-05-08 01:30 33.01356 -94.82035 26954 ft 557 kts 94°
2026-05-08 01:30 33.01230 -94.77509 27459 ft 553 kts 94°
2026-05-08 01:30 33.01101 -94.72944 27997 ft 549 kts 94°
2026-05-08 01:31 33.00970 -94.68417 28528 ft 545 kts 95°
2026-05-08 01:31 33.00839 -94.63914 29054 ft 543 kts 95°
2026-05-08 01:31 33.00706 -94.59427 29541 ft 542 kts 95°
2026-05-08 01:31 33.00571 -94.54933 30017 ft 542 kts 95°
2026-05-08 01:32 33.00435 -94.50455 30453 ft 541 kts 96°
2026-05-08 01:32 33.00299 -94.45988 30887 ft 540 kts 96°
2026-05-08 01:32 33.00160 -94.41500 31299 ft 541 kts 96°
2026-05-08 01:32 33.00021 -94.37087 31697 ft 541 kts 96°
2026-05-08 01:33 32.99880 -94.32621 32114 ft 541 kts 96°
2026-05-08 01:33 32.99738 -94.28158 32545 ft 540 kts 96°
2026-05-08 01:33 32.99587 -94.23682 32939 ft 540 kts 96°
2026-05-08 01:33 32.99417 -94.19212 33333 ft 540 kts 96°
2026-05-08 01:34 32.99243 -94.14898 33679 ft 540 kts 96°
2026-05-08 01:34 32.99058 -94.10422 34032 ft 540 kts 96°
2026-05-08 01:34 32.98875 -94.06010 34336 ft 541 kts 96°
2026-05-08 01:34 32.98689 -94.01530 34557 ft 544 kts 96°
2026-05-08 01:35 32.98502 -93.97024 34754 ft 547 kts 96°
2026-05-08 01:35 32.98314 -93.92488 34992 ft 549 kts 96°
2026-05-08 01:35 32.98126 -93.87944 35248 ft 550 kts 96°
2026-05-08 01:35 32.97936 -93.83392 35481 ft 552 kts 96°
2026-05-08 01:36 32.97745 -93.78869 35691 ft 554 kts 96°
2026-05-08 01:36 32.97550 -93.74281 35915 ft 556 kts 96°
2026-05-08 01:36 32.97352 -93.69677 36163 ft 557 kts 96°
2026-05-08 01:36 32.97155 -93.65134 36399 ft 558 kts 96°
2026-05-08 01:37 32.96952 -93.60506 36603 ft 560 kts 96°
2026-05-08 01:37 32.96748 -93.55887 36818 ft 561 kts 96°
2026-05-08 01:37 32.96541 -93.51226 37058 ft 562 kts 96°
2026-05-08 01:37 32.96332 -93.46568 37282 ft 564 kts 96°
2026-05-08 01:38 32.96121 -93.41902 37500 ft 565 kts 96°
2026-05-08 01:38 32.95908 -93.37223 37717 ft 567 kts 96°
2026-05-08 01:38 32.95693 -93.32549 37944 ft 568 kts 96°
2026-05-08 01:38 32.95475 -93.27846 38168 ft 569 kts 96°
2026-05-08 01:39 32.95256 -93.23139 38395 ft 569 kts 96°
2026-05-08 01:39 32.95035 -93.18437 38613 ft 570 kts 96°
2026-05-08 01:39 32.94808 -93.13788 38807 ft 571 kts 97°
2026-05-08 01:39 32.94525 -93.09083 39009 ft 571 kts 98°
2026-05-08 01:40 32.94198 -93.04338 39064 ft 574 kts 98°
2026-05-08 01:40 32.93499 -92.94886 39066 ft 573 kts 98°
2026-05-08 01:41 32.92807 -92.85432 39073 ft 574 kts 98°
2026-05-08 01:41 32.92134 -92.76012 39065 ft 576 kts 98°
2026-05-08 01:42 32.91457 -92.66504 39064 ft 577 kts 98°
2026-05-08 01:42 32.90772 -92.56993 39059 ft 577 kts 98°
2026-05-08 01:43 32.90075 -92.47460 39051 ft 577 kts 98°
2026-05-08 01:43 32.89377 -92.38017 39056 ft 577 kts 98°
2026-05-08 01:44 32.88667 -92.28516 39057 ft 576 kts 98°
2026-05-08 01:44 32.87951 -92.19031 39068 ft 576 kts 98°
2026-05-08 01:45 32.87228 -92.09548 39071 ft 575 kts 98°
2026-05-08 01:45 32.86499 -92.00075 39074 ft 575 kts 98°
2026-05-08 01:46 32.85769 -91.90682 39068 ft 575 kts 98°
2026-05-08 01:46 32.85025 -91.81217 39071 ft 575 kts 98°
2026-05-08 01:47 32.84275 -91.71758 39074 ft 574 kts 98°
2026-05-08 01:47 32.83519 -91.62309 39074 ft 575 kts 98°
2026-05-08 01:48 32.82374 -91.48181 39022 ft 575 kts 98°
2026-05-08 01:48 32.81600 -91.38736 38983 ft 575 kts 98°
2026-05-08 01:49 32.80817 -91.29269 38951 ft 575 kts 98°
2026-05-08 01:49 32.80027 -91.19807 38937 ft 575 kts 98°
2026-05-08 01:50 32.79235 -91.10412 38956 ft 575 kts 98°
2026-05-08 01:50 32.78431 -91.00952 38986 ft 576 kts 98°
2026-05-08 01:51 32.77619 -90.91483 39027 ft 576 kts 99°
2026-05-08 01:51 32.76800 -90.82022 39067 ft 576 kts 99°
2026-05-08 01:52 32.75979 -90.72625 39075 ft 576 kts 99°
2026-05-08 01:52 32.75145 -90.63157 39069 ft 576 kts 99°
2026-05-08 01:53 32.74305 -90.53699 39068 ft 576 kts 99°
2026-05-08 01:53 32.73457 -90.44241 39065 ft 576 kts 99°
2026-05-08 01:54 32.72604 -90.34796 39060 ft 575 kts 99°
2026-05-08 01:54 32.71743 -90.25349 39056 ft 575 kts 99°
2026-05-08 01:55 32.70882 -90.15982 39059 ft 574 kts 99°
2026-05-08 01:55 32.70010 -90.06572 39053 ft 574 kts 99°
2026-05-08 01:56 32.69128 -89.97143 39049 ft 574 kts 99°
2026-05-08 01:56 32.68242 -89.87731 39026 ft 574 kts 99°
2026-05-08 01:57 32.67354 -89.78385 39014 ft 574 kts 99°
2026-05-08 01:57 32.66453 -89.68975 38991 ft 573 kts 99°
2026-05-08 01:58 32.65547 -89.59588 38978 ft 573 kts 99°
2026-05-08 01:58 32.64633 -89.50186 38967 ft 573 kts 99°
2026-05-08 01:59 32.63714 -89.40802 38975 ft 573 kts 99°
2026-05-08 01:59 32.63076 -89.31420 39000 ft 574 kts 93°
2026-05-08 02:00 32.62963 -89.22009 39009 ft 575 kts 91°
2026-05-08 02:00 32.62919 -89.12515 39017 ft 575 kts 91°
2026-05-08 02:01 32.62815 -89.03035 39007 ft 575 kts 92°
2026-05-08 02:01 32.62659 -88.93564 39019 ft 575 kts 92°
2026-05-08 02:02 32.62488 -88.84150 39034 ft 574 kts 92°
2026-05-08 02:02 32.62313 -88.74692 39032 ft 574 kts 92°
2026-05-08 02:03 32.62135 -88.65214 39054 ft 575 kts 92°
2026-05-08 02:03 32.61951 -88.55729 39057 ft 575 kts 92°
2026-05-08 02:04 32.61760 -88.46312 39053 ft 575 kts 92°
2026-05-08 02:04 32.61562 -88.36832 39059 ft 575 kts 92°
2026-05-08 02:05 32.61356 -88.27361 39063 ft 575 kts 92°
2026-05-08 02:05 32.61143 -88.17886 39068 ft 575 kts 92°
2026-05-08 02:06 32.60923 -88.08410 39068 ft 575 kts 92°
2026-05-08 02:06 32.60697 -87.99005 39062 ft 575 kts 92°
2026-05-08 02:07 32.60462 -87.89516 39063 ft 575 kts 92°
2026-05-08 02:07 32.60220 -87.80033 39062 ft 575 kts 92°
2026-05-08 02:08 32.59973 -87.70616 39051 ft 575 kts 92°
2026-05-08 02:08 32.59717 -87.61142 39051 ft 575 kts 92°
2026-05-08 02:09 32.59454 -87.51648 39046 ft 576 kts 92°
2026-05-08 02:09 32.59184 -87.42174 39045 ft 576 kts 92°
2026-05-08 02:10 32.58906 -87.32681 39039 ft 575 kts 92°
2026-05-08 02:10 32.58621 -87.23197 39038 ft 575 kts 93°
2026-05-08 02:11 32.58332 -87.13792 39042 ft 574 kts 93°
2026-05-08 02:11 32.58034 -87.04329 39039 ft 574 kts 93°
2026-05-08 02:12 32.57729 -86.94884 39036 ft 573 kts 93°
2026-05-08 02:12 32.57417 -86.85434 39034 ft 573 kts 93°
2026-05-08 02:13 32.57099 -86.76004 39026 ft 573 kts 93°
2026-05-08 02:13 32.56774 -86.66575 39022 ft 573 kts 93°
2026-05-08 02:14 32.56444 -86.57213 39025 ft 572 kts 93°
2026-05-08 02:14 32.56104 -86.47786 39023 ft 572 kts 93°
2026-05-08 02:15 32.55758 -86.38368 39021 ft 572 kts 93°
2026-05-08 02:15 32.55405 -86.28958 39018 ft 571 kts 93°
2026-05-08 02:16 32.55045 -86.19548 39025 ft 571 kts 94°
2026-05-08 02:16 32.54679 -86.10157 39022 ft 571 kts 94°
2026-05-08 02:17 32.54308 -86.00819 39022 ft 571 kts 94°
2026-05-08 02:17 32.53928 -85.91439 39021 ft 571 kts 94°
2026-05-08 02:18 32.53540 -85.82031 39021 ft 571 kts 94°
2026-05-08 02:18 32.53146 -85.72633 39026 ft 571 kts 94°
2026-05-08 02:19 32.52745 -85.63245 39038 ft 571 kts 94°
2026-05-08 02:19 32.52337 -85.53853 39044 ft 571 kts 94°
2026-05-08 02:20 32.51924 -85.44521 39047 ft 571 kts 94°
2026-05-08 02:20 32.51502 -85.35123 39040 ft 571 kts 94°
2026-05-08 02:21 32.51075 -85.25790 39031 ft 571 kts 94°
2026-05-08 02:21 32.50639 -85.16374 39010 ft 571 kts 94°
2026-05-08 02:22 32.50193 -85.06986 39016 ft 571 kts 94°
2026-05-08 02:22 32.49720 -84.97618 39021 ft 570 kts 94°
2026-05-08 02:23 32.49240 -84.88305 39012 ft 570 kts 95°
2026-05-08 02:23 32.48752 -84.78929 39010 ft 570 kts 95°
2026-05-08 02:24 32.48260 -84.69574 39000 ft 569 kts 95°
2026-05-08 02:24 32.47601 -84.60229 38996 ft 569 kts 98°
2026-05-08 02:25 32.46631 -84.50943 38980 ft 568 kts 99°
2026-05-08 02:25 32.45644 -84.41736 38985 ft 568 kts 99°
2026-05-08 02:26 32.44704 -84.32459 38974 ft 568 kts 98°
2026-05-08 02:26 32.43789 -84.23165 38983 ft 567 kts 98°
2026-05-08 02:27 32.42873 -84.13895 38984 ft 567 kts 98°
2026-05-08 02:27 32.41951 -84.04688 38989 ft 567 kts 98°
2026-05-08 02:28 32.41012 -83.95408 39002 ft 567 kts 98°
2026-05-08 02:28 32.40066 -83.86146 39009 ft 567 kts 99°
2026-05-08 02:29 32.39114 -83.76880 39012 ft 567 kts 99°
2026-05-08 02:29 32.38164 -83.67695 39002 ft 567 kts 99°
2026-05-08 02:30 32.37199 -83.58433 38994 ft 567 kts 99°
2026-05-08 02:30 32.36228 -83.49184 38978 ft 566 kts 99°
2026-05-08 02:31 32.35252 -83.39951 38964 ft 566 kts 99°
2026-05-08 02:31 32.34275 -83.30776 38961 ft 566 kts 99°
2026-05-08 02:32 32.33286 -83.21553 38968 ft 565 kts 99°
2026-05-08 02:32 32.32289 -83.12323 38974 ft 565 kts 99°
2026-05-08 02:33 32.31288 -83.03116 38973 ft 565 kts 99°
2026-05-08 02:33 32.30450 -82.95454 38803 ft 568 kts 99°
2026-05-08 02:34 32.29773 -82.89305 38159 ft 570 kts 99°
2026-05-08 02:34 32.29262 -82.84679 37675 ft 565 kts 99°
2026-05-08 02:34 32.28755 -82.80089 37217 ft 563 kts 99°
2026-05-08 02:34 32.28246 -82.75509 36759 ft 563 kts 100°
2026-05-08 02:35 32.27907 -82.72471 36470 ft 563 kts 100°
2026-05-08 02:35 32.27395 -82.67891 36023 ft 562 kts 100°
2026-05-08 02:35 32.26881 -82.63311 35588 ft 562 kts 100°
2026-05-08 02:35 32.26200 -82.57263 35012 ft 557 kts 100°
2026-05-08 02:36 32.25691 -82.52749 34519 ft 551 kts 100°
2026-05-08 02:36 32.25187 -82.48292 34041 ft 545 kts 100°
2026-05-08 02:36 32.24686 -82.43883 33506 ft 540 kts 100°
2026-05-08 02:36 32.24354 -82.40972 33149 ft 537 kts 100°
2026-05-08 02:37 32.23855 -82.36616 32621 ft 533 kts 100°
2026-05-08 02:37 32.23358 -82.32287 32103 ft 534 kts 100°
2026-05-08 02:37 32.22853 -82.27915 31599 ft 535 kts 99°
2026-05-08 02:37 32.22353 -82.23592 30995 ft 533 kts 99°
2026-05-08 02:38 32.21689 -82.17863 30160 ft 530 kts 99°
2026-05-08 02:38 32.21351 -82.14948 29696 ft 528 kts 99°
2026-05-08 02:38 32.20857 -82.10704 28965 ft 518 kts 99°
2026-05-08 02:38 32.20370 -82.06520 28255 ft 508 kts 99°
2026-05-08 02:39 32.19898 -82.02485 27568 ft 498 kts 99°
2026-05-08 02:39 32.19428 -81.98473 26896 ft 489 kts 99°
2026-05-08 02:39 32.18964 -81.94534 26180 ft 481 kts 99°
2026-05-08 02:39 32.18505 -81.90648 25427 ft 476 kts 99°
2026-05-08 02:40 32.18048 -81.86797 24697 ft 470 kts 99°
2026-05-08 02:40 32.17598 -81.83011 23991 ft 465 kts 100°
2026-05-08 02:40 32.17149 -81.79241 23233 ft 460 kts 100°
2026-05-08 02:40 32.16705 -81.75521 22403 ft 454 kts 100°
2026-05-08 02:41 32.16265 -81.71850 21594 ft 449 kts 100°
2026-05-08 02:41 32.15836 -81.68271 20815 ft 444 kts 100°
2026-05-08 02:41 32.15404 -81.64678 20049 ft 440 kts 100°
2026-05-08 02:42 32.15271 -81.63575 19815 ft 438 kts 100°
2026-05-08 02:42 32.15068 -81.61896 19463 ft 436 kts 100°
2026-05-08 02:42 32.14643 -81.58376 18736 ft 431 kts 100°
2026-05-08 02:43 32.14221 -81.54892 17972 ft 427 kts 100°
2026-05-08 02:43 32.13653 -81.51481 17145 ft 421 kts 105°
2026-05-08 02:43 32.12975 -81.48143 16353 ft 416 kts 106°
2026-05-08 02:43 32.12284 -81.44894 15593 ft 411 kts 106°
2026-05-08 02:44 32.11582 -81.41643 14839 ft 407 kts 106°
2026-05-08 02:44 32.10878 -81.38425 14102 ft 403 kts 106°
2026-05-08 02:44 32.10177 -81.35250 13330 ft 398 kts 106°
2026-05-08 02:44 32.09474 -81.32108 12529 ft 393 kts 106°
2026-05-08 02:45 32.08804 -81.29002 11743 ft 388 kts 105°
2026-05-08 02:45 32.08172 -81.25939 10978 ft 382 kts 105°
2026-05-08 02:45 32.07557 -81.22930 10440 ft 369 kts 104°
2026-05-08 02:45 32.07161 -81.20043 10243 ft 347 kts 88°
2026-05-08 02:46 32.07603 -81.17369 10080 ft 322 kts 63°
2026-05-08 02:46 32.08753 -81.15189 9634 ft 308 kts 45°
2026-05-08 02:46 32.10131 -81.13287 9144 ft 302 kts 43°
2026-05-08 02:46 32.11515 -81.11449 8640 ft 297 kts 43°
2026-05-08 02:47 32.12912 -81.09688 8146 ft 290 kts 34°
2026-05-08 02:47 32.14628 -81.08616 7650 ft 272 kts
2026-05-08 02:47 32.16464 -81.08307 7200 ft 263 kts 358°
2026-05-08 02:47 32.18253 -81.08140 6734 ft 260 kts 357°
2026-05-08 02:48 32.20060 -81.07989 6265 ft 259 kts 357°
2026-05-08 02:48 32.21850 -81.07848 5771 ft 257 kts 356°
2026-05-08 02:48 32.23635 -81.07714 5283 ft 255 kts 356°
2026-05-08 02:48 32.25402 -81.07587 4796 ft 254 kts 356°
2026-05-08 02:49 32.27163 -81.07468 4314 ft 252 kts 356°
2026-05-08 02:49 32.28908 -81.07358 3810 ft 249 kts 357°
2026-05-08 02:49 32.30647 -81.07258 3358 ft 251 kts 356°
2026-05-08 02:49 32.32365 -81.07162 3074 ft 240 kts 356°
2026-05-08 02:50 32.33877 -81.07505 2998 ft 206 kts 326°
2026-05-08 02:50 32.34899 -81.08492 2998 ft 177 kts 313°
2026-05-08 02:50 32.35738 -81.09461 2789 ft 160 kts 312°
2026-05-08 02:50 32.36486 -81.10348 2568 ft 148 kts 306°
2026-05-08 02:51 32.36730 -81.11447 2426 ft 141 kts 263°
2026-05-08 02:51 32.36127 -81.12367 2228 ft 156 kts 217°
2026-05-08 02:51 32.35085 -81.12831 2093 ft 162 kts 208°
2026-05-08 02:51 32.34015 -81.13290 2033 ft 163 kts 208°
2026-05-08 02:52 32.32961 -81.13732 2005 ft 159 kts 208°
2026-05-08 02:52 32.31921 -81.14157 1997 ft 158 kts 208°
2026-05-08 02:52 32.30864 -81.14594 2006 ft 164 kts 208°
2026-05-08 02:52 32.29792 -81.15048 2009 ft 163 kts 208°
2026-05-08 02:53 32.28745 -81.15492 2007 ft 157 kts 208°
2026-05-08 02:53 32.27769 -81.15916 1976 ft 148 kts 210°
2026-05-08 02:53 32.26808 -81.16366 1909 ft 149 kts 211°
2026-05-08 02:53 32.25845 -81.16841 1822 ft 151 kts 211°
2026-05-08 02:54 32.24883 -81.17337 1802 ft 152 kts 212°
2026-05-08 02:54 32.23902 -81.17841 1744 ft 156 kts 212°
2026-05-08 02:54 32.22898 -81.18331 1707 ft 158 kts 210°
2026-05-08 02:54 32.21854 -81.18812 1603 ft 165 kts 208°
2026-05-08 02:55 32.20723 -81.19282 1312 ft 181 kts 204°
2026-05-08 02:55 32.18367 -81.19966 767 ft 167 kts 189°
2026-05-08 02:55 32.17473 -81.20002 672 ft 163 kts 183°
2026-05-08 02:56 32.16398 -81.20024 568 ft 156 kts 184°
2026-05-08 02:56 32.15357 -81.20013 421 ft 146 kts 183°
2026-05-08 02:56 32.14368 -81.20019 252 ft 138 kts 182°
2026-05-08 02:56 32.13439 -81.20010 65 ft 131 kts 182°
2026-05-08 02:57 32.12623 -81.20005 43 ft 102 kts 180°
2026-05-08 02:57 32.12035 -81.20006 46 ft 64 kts 180°
2026-05-08 02:57 32.11814 -81.19997 49 ft 26 kts 178°
2026-05-08 02:57 32.11678 -81.19962 49 ft 16 kts 123°
2026-05-08 02:58 32.11688 -81.19841 52 ft 15 kts 82°
2026-05-08 02:58 32.11648 -81.19783 50 ft 9 kts 147°
2026-05-08 02:58 32.11604 -81.19725 51 ft 10 kts 135°
2026-05-08 02:58 32.11572 -81.19715 49 ft 0 kts 177°